Time,TemperatureF,DewpointF,PressureIn,WindDirection,WindDirectionDegrees,WindSpeedMPH,WindSpeedGustMPH,Humidity,HourlyPrecipIn,Conditions,Clouds,dailyrainin,SoftwareType,DateUTC
2017-11-20 00:00:00,33.2,25.1,30.16,SW,215,4.0,7.0,72,0.00,,,0.00,Wunderground v.1.15,2017-11-20 06:00:00,
2017-11-20 00:06:00,33.4,25.3,30.16,SW,215,5.0,10.0,72,0.00,,,0.00,Wunderground v.1.15,2017-11-20 06:06:00,
2017-11-20 00:12:00,33.4,25.3,30.16,SSW,213,5.0,9.0,72,0.00,,,0.00,Wunderground v.1.15,2017-11-20 06:12:00,
2017-11-20 00:18:00,33.5,25.4,30.16,SSW,212,5.0,9.0,72,0.00,,,0.00,Wunderground v.1.15,2017-11-20 06:18:00,
2017-11-20 00:23:00,33.5,25.4,30.16,SW,215,6.0,9.0,72,0.00,,,0.00,Wunderground v.1.15,2017-11-20 06:23:00,
2017-11-20 00:35:00,33.8,25.4,30.15,SSW,193,6.0,10.0,71,0.00,,,0.00,Wunderground v.1.15,2017-11-20 06:35:00,
2017-11-20 00:41:00,33.9,25.5,30.15,SSW,192,6.0,6.0,71,0.00,,,0.00,Wunderground v.1.15,2017-11-20 06:41:00,
2017-11-20 00:47:00,34.0,25.6,30.14,SSW,196,6.0,12.0,71,0.00,,,0.00,Wunderground v.1.15,2017-11-20 06:47:00,
2017-11-20 00:58:00,33.9,25.5,30.14,South,189,7.0,9.0,71,0.00,,,0.00,Wunderground v.1.15,2017-11-20 06:58:00,
2017-11-20 01:04:00,34.0,25.6,30.14,South,189,7.0,10.0,71,0.00,,,0.00,Wunderground v.1.15,2017-11-20 07:04:00,
2017-11-20 01:16:00,34.0,25.6,30.14,SSW,201,7.0,9.0,71,0.00,,,0.00,Wunderground v.1.15,2017-11-20 07:16:00,
2017-11-20 01:22:00,33.9,25.5,30.14,SSW,198,7.0,10.0,71,0.00,,,0.00,Wunderground v.1.15,2017-11-20 07:22:00,
2017-11-20 01:45:00,34.0,25.2,30.14,SSW,193,8.0,10.0,70,0.00,,,0.00,Wunderground v.1.15,2017-11-20 07:45:00,
2017-11-20 01:51:00,34.1,25.3,30.13,South,189,7.0,10.0,70,0.00,,,0.00,Wunderground v.1.15,2017-11-20 07:51:00,
2017-11-20 02:14:00,34.3,25.2,30.13,SSW,193,7.0,11.0,69,0.00,,,0.00,Wunderground v.1.15,2017-11-20 08:14:00,
2017-11-20 02:22:00,34.2,25.4,30.13,South,190,7.0,7.0,70,0.00,,,0.00,Wunderground v.1.15,2017-11-20 08:22:00,
2017-11-20 02:28:00,34.2,25.4,30.13,South,190,7.0,10.0,70,0.00,,,0.00,Wunderground v.1.15,2017-11-20 08:28:00,
2017-11-20 02:39:00,34.3,25.5,30.12,South,188,8.0,13.0,70,0.00,,,0.00,Wunderground v.1.15,2017-11-20 08:39:00,
2017-11-20 02:45:00,34.4,25.6,30.12,South,187,7.0,12.0,70,0.00,,,0.00,Wunderground v.1.15,2017-11-20 08:45:00,
2017-11-20 02:51:00,34.5,25.4,30.11,South,184,6.0,13.0,69,0.00,,,0.00,Wunderground v.1.15,2017-11-20 08:51:00,